Time,TemperatureF,DewpointF,PressureIn,WindDirection,WindDirectionDegrees,WindSpeedMPH,WindSpeedGustMPH,Humidity,HourlyPrecipIn,Conditions,Clouds,dailyrainin,SoftwareType,DateUTC
2013-10-28 00:13:00,76.0,70.0,30.04,ENE,69,9.0,14.0,81,0.00,,,0.00,,2013-10-28 04:13:00,
2013-10-28 00:23:00,76.0,70.0,30.05,NE,38,7.0,13.0,81,0.00,,,0.00,,2013-10-28 04:23:00,
2013-10-28 00:53:00,76.0,70.0,30.05,NNE,20,6.0,11.0,81,0.00,,,0.00,,2013-10-28 04:53:00,
2013-10-28 01:13:00,76.0,70.0,30.04,NE,55,8.0,13.0,81,0.00,,,0.00,,2013-10-28 05:13:00,
2013-10-28 01:22:00,76.0,70.0,30.03,NE,40,7.0,11.0,81,0.00,,,0.00,,2013-10-28 05:22:00,
2013-10-28 01:53:00,76.0,70.0,30.03,NE,48,6.0,11.0,82,0.00,,,0.00,,2013-10-28 05:53:00,
2013-10-28 02:12:00,76.0,70.0,30.03,NNE,32,5.0,9.0,83,0.00,,,0.00,,2013-10-28 06:12:00,
2013-10-28 02:22:00,76.0,71.0,30.03,ENE,59,6.0,11.0,84,0.00,,,0.00,,2013-10-28 06:22:00,
2013-10-28 02:43:00,76.0,71.0,30.03,NE,53,4.0,7.0,84,0.00,,,0.00,,2013-10-28 06:43:00,
2013-10-28 02:52:00,76.0,71.0,30.02,ENE,68,4.0,8.0,85,0.00,,,0.00,,2013-10-28 06:52:00,
2013-10-28 03:22:00,76.0,72.0,30.01,NE,41,6.0,10.0,87,0.00,,,0.00,,2013-10-28 07:22:00,
2013-10-28 03:52:00,76.0,72.0,30.01,NE,46,7.0,10.0,87,0.00,,,0.00,,2013-10-28 07:52:00,
2013-10-28 04:12:00,76.0,72.0,30.01,NNE,23,6.0,10.0,87,0.00,,,0.00,,2013-10-28 08:12:00,
2013-10-28 04:22:00,76.0,72.0,30.01,East,81,5.0,9.0,88,0.00,,,0.00,,2013-10-28 08:22:00,
2013-10-28 04:42:00,76.0,72.0,30.00,NNE,29,6.0,8.0,88,0.00,,,0.00,,2013-10-28 08:42:00,
2013-10-28 04:52:00,76.0,72.0,30.00,NE,47,6.0,9.0,88,0.00,,,0.00,,2013-10-28 08:52:00,
2013-10-28 05:22:00,76.0,73.0,30.00,NNE,31,8.0,11.0,89,0.00,,,0.00,,2013-10-28 09:22:00,
2013-10-28 05:53:00,75.0,72.0,30.00,NE,38,9.0,12.0,89,0.00,,,0.00,,2013-10-28 09:53:00,
2013-10-28 06:23:00,75.0,72.0,30.01,NNE,27,12.0,15.0,89,0.00,,,0.00,,2013-10-28 10:23:00,
2013-10-28 06:43:00,75.0,72.0,30.01,NE,45,10.0,16.0,89,0.00,,,0.00,,2013-10-28 10:43:00,
2013-10-28 06:53:00,75.0,71.0,30.01,NNE,25,11.0,15.0,88,0.00,,,0.00,,2013-10-28 10:53:00,
2013-10-28 07:12:00,75.0,71.0,30.01,ENE,67,11.0,16.0,88,0.00,,,0.00,,2013-10-28 11:12:00,
2013-10-28 07:22:00,75.0,71.0,30.02,NNE,27,11.0,15.0,87,0.00,,,0.00,,2013-10-28 11:22:00,
2013-10-28 07:42:00,75.0,71.0,30.02,NNE,30,12.0,16.0,87,0.00,,,0.00,,2013-10-28 11:42:00,
2013-10-28 07:52:00,75.0,71.0,30.03,NNE,32,11.0,15.0,86,0.00,,,0.00,,2013-10-28 11:52:00,
2013-10-28 08:21:00,76.0,71.0,30.04,NE,45,11.0,17.0,85,0.00,,,0.00,,2013-10-28 12:21:00,
2013-10-28 08:42:00,76.0,71.0,30.04,NNE,25,11.0,16.0,85,0.00,,,0.00,,2013-10-28 12:42:00,
2013-10-28 08:52:00,76.0,71.0,30.05,NNE,26,8.0,16.0,84,0.00,,,0.00,,2013-10-28 12:52:00,
2013-10-28 09:11:00,76.0,71.0,30.06,NNE,21,9.0,13.0,84,0.00,,,0.00,,2013-10-28 13:11:00,
2013-10-28 09:22:00,76.0,70.0,30.06,NE,46,10.0,14.0,83,0.00,,,0.00,,2013-10-28 13:22:00,
2013-10-28 09:42:00,77.0,71.0,30.07,NE,45,9.0,13.0,83,0.00,,,0.00,,2013-10-28 13:42:00,
2013-10-28 09:52:00,78.0,71.0,30.07,NE,42,13.0,16.0,80,0.00,,,0.00,,2013-10-28 13:52:00,
2013-10-28 10:11:00,78.0,71.0,30.08,NE,39,12.0,18.0,78,0.00,,,0.00,,2013-10-28 14:11:00,
2013-10-28 10:22:00,79.0,71.0,30.09,NNE,28,13.0,18.0,77,0.00,,,0.00,,2013-10-28 14:22:00,
2013-10-28 10:42:00,79.0,71.0,30.09,NNE,30,15.0,19.0,76,0.00,,,0.00,,2013-10-28 14:42:00,
2013-10-28 10:52:00,80.0,72.0,30.09,ENE,62,14.0,18.0,76,0.00,,,0.00,,2013-10-28 14:52:00,
2013-10-28 11:11:00,80.0,71.0,30.09,NNE,32,12.0,18.0,75,0.00,,,0.00,,2013-10-28 15:11:00,
2013-10-28 11:22:00,81.0,72.0,30.09,ENE,65,9.0,15.0,74,0.00,,,0.00,,2013-10-28 15:22:00,
2013-10-28 11:43:00,81.0,72.0,30.09,NE,55,8.0,18.0,73,0.00,,,0.00,,2013-10-28 15:43:00,
2013-10-28 11:53:00,82.0,72.0,30.09,NE,38,11.0,17.0,72,0.00,,,0.00,,2013-10-28 15:53:00,
2013-10-28 12:23:00,83.0,72.0,30.09,NNE,32,12.0,18.0,70,0.00,,,0.00,,2013-10-28 16:23:00,
2013-10-28 12:43:00,83.0,73.0,30.08,NNE,25,10.0,16.0,71,0.00,,,0.00,,2013-10-28 16:43:00,
2013-10-28 12:53:00,83.0,72.0,30.08,ENE,67,12.0,15.0,70,0.00,,,0.00,,2013-10-28 16:53:00,
2013-10-28 13:12:00,83.0,72.0,30.08,ENE,71,10.0,15.0,69,0.00,,,0.00,,2013-10-28 17:12:00,
2013-10-28 13:23:00,84.0,72.0,30.07,NE,38,11.0,16.0,68,0.00,,,0.00,,2013-10-28 17:23:00,
2013-10-28 13:52:00,84.0,71.0,30.06,East,86,9.0,16.0,66,0.00,,,0.00,,2013-10-28 17:52:00,
2013-10-28 14:12:00,84.0,72.0,30.06,NNE,33,8.0,16.0,67,0.00,,,0.00,,2013-10-28 18:12:00,
2013-10-28 14:22:00,85.0,72.0,30.05,NE,34,7.0,15.0,65,0.00,,,0.00,,2013-10-28 18:22:00,
2013-10-28 14:52:00,84.0,70.0,30.04,NNE,33,14.0,17.0,64,0.00,,,0.00,,2013-10-28 18:52:00,
2013-10-28 15:22:00,85.0,70.0,30.03,NNE,27,11.0,16.0,62,0.00,,,0.00,,2013-10-28 19:22:00,
2013-10-28 15:42:00,85.0,70.0,30.03,ENE,65,9.0,17.0,60,0.00,,,0.00,,2013-10-28 19:42:00,
2013-10-28 15:53:00,85.0,70.0,30.03,ENE,71,10.0,17.0,60,0.00,,,0.00,,2013-10-28 19:53:00,
2013-10-28 16:12:00,85.0,70.0,30.03,NE,40,8.0,15.0,61,0.00,,,0.00,,2013-10-28 20:12:00,
2013-10-28 16:22:00,85.0,70.0,30.03,East,86,8.0,17.0,60,0.00,,,0.00,,2013-10-28 20:22:00,
2013-10-28 16:52:00,85.0,71.0,30.03,NE,48,8.0,15.0,63,0.00,,,0.00,,2013-10-28 20:52:00,
2013-10-28 17:22:00,84.0,71.0,30.04,NE,42,8.0,16.0,65,0.00,,,0.00,,2013-10-28 21:22:00,
2013-10-28 17:43:00,84.0,71.0,30.04,East,98,11.0,16.0,66,0.00,,,0.00,,2013-10-28 21:43:00,
2013-10-28 17:54:00,83.0,72.0,30.04,NE,51,8.0,15.0,69,0.00,,,0.00,,2013-10-28 21:54:00,
2013-10-28 18:23:00,83.0,73.0,30.05,East,90,8.0,14.0,71,0.00,,,0.00,,2013-10-28 22:23:00,
2013-10-28 18:53:00,81.0,72.0,30.05,East,79,9.0,15.0,73,0.00,,,0.00,,2013-10-28 22:53:00,
2013-10-28 19:22:00,79.0,71.0,30.05,ENE,74,8.0,14.0,76,0.00,,,0.00,,2013-10-28 23:22:00,
2013-10-28 19:42:00,79.0,71.0,30.06,ENE,63,10.0,15.0,77,0.00,,,0.00,,2013-10-28 23:42:00,
2013-10-28 19:52:00,79.0,71.0,30.06,ENE,71,9.0,14.0,77,0.00,,,0.00,,2013-10-28 23:52:00,
2013-10-28 20:22:00,79.0,72.0,30.07,NE,40,7.0,15.0,78,0.00,,,0.00,,2013-10-29 00:22:00,
2013-10-28 20:42:00,79.0,72.0,30.07,ENE,67,9.0,14.0,79,0.00,,,0.00,,2013-10-29 00:42:00,
2013-10-28 20:52:00,79.0,72.0,30.07,ENE,64,9.0,15.0,79,0.00,,,0.00,,2013-10-29 00:52:00,
2013-10-28 21:11:00,79.0,72.0,30.07,NE,38,9.0,15.0,80,0.00,,,0.00,,2013-10-29 01:11:00,
2013-10-28 21:22:00,78.0,71.0,30.07,ESE,119,9.0,13.0,80,0.00,,,0.00,,2013-10-29 01:22:00,
2013-10-28 21:42:00,78.0,71.0,30.08,ENE,73,8.0,15.0,80,0.00,,,0.00,,2013-10-29 01:42:00,
2013-10-28 21:53:00,78.0,71.0,30.09,NE,48,9.0,16.0,80,0.00,,,0.00,,2013-10-29 01:53:00,
2013-10-28 22:21:00,78.0,71.0,30.09,NE,53,8.0,16.0,80,0.00,,,0.00,,2013-10-29 02:21:00,
2013-10-28 22:44:00,78.0,71.0,30.10,NE,47,8.0,14.0,80,0.00,,,0.00,,2013-10-29 02:44:00,
2013-10-28 22:54:00,78.0,72.0,30.10,NE,43,8.0,13.0,81,0.00,,,0.00,,2013-10-29 02:54:00,
2013-10-28 23:14:00,78.0,72.0,30.10,NE,41,7.0,13.0,81,0.00,,,0.00,,2013-10-29 03:14:00,
2013-10-28 23:27:00,78.0,72.0,30.10,NE,53,7.0,12.0,82,0.00,,,0.00,,2013-10-29 03:27:00,
2013-10-28 23:40:00,-999.0,-99.9,30.10,NE,52,6.0,13.0,82,0.00,,,0.00,,2013-10-29 03:40:00,
2013-10-28 23:48:00,77.0,71.0,30.10,NE,52,6.0,13.0,82,0.00,,,0.00,,2013-10-29 03:48:00,
2013-10-28 23:56:00,77.0,71.0,30.09,NE,40,7.0,12.0,82,0.00,,,0.00,,2013-10-29 03:56:00,